Location: Newark
(46.2358°N, 112.1211°W)
Time: 08:46:57
(UTC+00:00)

DELFI C3 - Pass Details

Date: 05 July 2020
Orbit: 533 x 552 km, 97.4° (Epoch: 12 August)

Event Time Altitude Azimuth Distance (km) Brightness Sun altitude
Rises 04:35:57 0° 216° (SW) 2,711 ? -10.2°
Reaches altitude 10° 04:39:20 10° 248° (WSW) 1,828 ? -10.6°
Maximum altitude 04:40:54 12° 271° (W) 1,703 ? -10.8°
Drops below altitude 10° 04:42:29 10° 295° (WNW) 1,837 ? -10.9°
Sets 04:45:55 0° 327° (NNW) 2,740 ? -11.3°
